sat.trackr.live / text

‹ back to catalog

STARLINK-30405

NORAD 57851 · 2023-141M

PAYLOAD ACTIVE UNKNOWN

§ Identity

Operator
Country
US
Launch date
2023-09-12
Launch site
AFWTR
Launch vehicle
Mass (kg)
RCS (m²)

Purposes: comms

External: N2YO · Heavens-Above · Gunter

§ Orbital elements

Epoch: 2026-05-25T03:07:08.817888Z

Period
94.01 min
Inclination
53.1612°
Eccentricity
0.0001023
Mean motion
15.31705050 rev/d
Perigee alt
470.0 km
Apogee alt
471.4 km
Semi-major
6,848.9 km
B*
2.3842e-5
RAAN
288.8525°
Arg perigee
88.6206°
Mean anomaly
271.4912°
Rev number
15,203

§ Raw data

STARLINK-304051 57851U 23141M   26145.12996317  .00000375  00000+0  23842-4 0  99902 57851  53.1612 288.8525 0001023  88.6206 271.4912 15.31705050152034

JSON: /api/v1/satellites/57851 · /tle

For live sub-satellite position, see the globe view (requires WebGL).

§ Visibility from observer

Set your observer location to see the next 7 days of passes ≥ 10°. The values pass through the URL so the page stays shareable.

No JS? Fill the form by hand. The geolocation button needs JavaScript.